Time,TemperatureF,DewpointF,PressureIn,WindDirection,WindDirectionDegrees,WindSpeedMPH,WindSpeedGustMPH,Humidity,HourlyPrecipIn,Conditions,Clouds,dailyrainin,SoftwareType,DateUTC
2013-06-14 00:01:00,57.0,53.0,29.74,WNW,292,10.0,21.0,86,0.00,,,0.25,,2013-06-14 04:01:00,
2013-06-14 00:12:00,56.0,52.0,29.76,NW,311,13.0,22.0,85,0.00,,,0.25,,2013-06-14 04:12:00,
2013-06-14 00:23:00,56.0,52.0,29.77,NW,321,8.0,20.0,86,0.00,,,0.25,,2013-06-14 04:23:00,
2013-06-14 00:33:00,56.0,52.0,29.77,NW,321,8.0,20.0,86,0.00,,,0.25,,2013-06-14 04:33:00,
2013-06-14 00:43:00,56.0,52.0,29.77,NW,321,8.0,20.0,86,0.00,,,0.25,,2013-06-14 04:43:00,
2013-06-14 00:53:00,56.0,52.0,29.77,NW,321,8.0,20.0,86,0.00,,,0.25,,2013-06-14 04:53:00,
2013-06-14 01:02:00,56.0,52.0,29.77,NW,319,7.0,21.0,85,0.00,,,0.25,,2013-06-14 05:02:00,
2013-06-14 01:12:00,56.0,52.0,29.77,NW,319,7.0,21.0,85,0.00,,,0.25,,2013-06-14 05:12:00,
2013-06-14 01:22:00,56.0,52.0,29.78,NW,321,5.0,19.0,85,0.00,,,0.25,,2013-06-14 05:22:00,
2013-06-14 01:34:00,56.0,52.0,29.78,NW,319,7.0,16.0,85,0.00,,,0.25,,2013-06-14 05:34:00,
2013-06-14 01:43:00,55.0,51.0,29.78,NW,319,7.0,17.0,87,0.00,,,0.25,,2013-06-14 05:43:00,
2013-06-14 01:52:00,55.0,51.0,29.78,NW,319,3.0,17.0,87,0.00,,,0.25,,2013-06-14 05:52:00,
2013-06-14 02:02:00,55.0,51.0,29.78,NW,319,3.0,17.0,87,0.00,,,0.25,,2013-06-14 06:02:00,
2013-06-14 02:12:00,54.0,51.0,29.79,NW,321,5.0,9.0,88,0.00,,,0.25,,2013-06-14 06:12:00,
2013-06-14 02:22:00,54.0,51.0,29.79,NW,321,5.0,9.0,88,0.00,,,0.25,,2013-06-14 06:22:00,
2013-06-14 02:33:00,54.0,51.0,29.80,WNW,284,3.0,10.0,88,0.00,,,0.25,,2013-06-14 06:33:00,
2013-06-14 02:43:00,54.0,51.0,29.80,WNW,284,3.0,10.0,88,0.00,,,0.25,,2013-06-14 06:43:00,
2013-06-14 02:52:00,54.0,51.0,29.80,NW,317,4.0,14.0,89,0.00,,,0.25,,2013-06-14 06:52:00,
2013-06-14 03:02:00,53.0,50.0,29.80,NW,305,3.0,13.0,90,0.00,,,0.25,,2013-06-14 07:02:00,
2013-06-14 03:12:00,53.0,50.0,29.80,NNW,334,3.0,11.0,90,0.00,,,0.25,,2013-06-14 07:12:00,
2013-06-14 03:22:00,53.0,50.0,29.80,NNW,334,3.0,11.0,90,0.00,,,0.25,,2013-06-14 07:22:00,
2013-06-14 03:33:00,53.0,50.0,29.80,NNW,333,2.0,11.0,91,0.00,,,0.25,,2013-06-14 07:33:00,
2013-06-14 03:43:00,53.0,50.0,29.81,NW,322,1.0,7.0,91,0.00,,,0.25,,2013-06-14 07:43:00,
2013-06-14 03:53:00,53.0,50.0,29.81,NW,318,3.0,7.0,91,0.00,,,0.25,,2013-06-14 07:53:00,
2013-06-14 04:02:00,53.0,50.0,29.81,NW,318,3.0,7.0,91,0.00,,,0.25,,2013-06-14 08:02:00,
2013-06-14 04:12:00,53.0,51.0,29.81,NW,318,6.0,10.0,92,0.00,,,0.25,,2013-06-14 08:12:00,
2013-06-14 04:23:00,53.0,51.0,29.82,NW,315,4.0,10.0,92,0.00,,,0.25,,2013-06-14 08:23:00,
2013-06-14 04:33:00,53.0,51.0,29.83,NW,311,5.0,10.0,92,0.00,,,0.25,,2013-06-14 08:33:00,
2013-06-14 04:43:00,53.0,50.0,29.83,NW,319,4.0,10.0,91,0.00,,,0.25,,2013-06-14 08:43:00,
2013-06-14 04:53:00,53.0,50.0,29.83,NW,319,4.0,10.0,91,0.00,,,0.25,,2013-06-14 08:53:00,
2013-06-14 05:02:00,53.0,50.0,29.84,NW,321,5.0,11.0,91,0.00,,,0.25,,2013-06-14 09:02:00,
2013-06-14 05:12:00,53.0,50.0,29.85,NW,324,6.0,13.0,90,0.00,,,0.25,,2013-06-14 09:12:00,
2013-06-14 05:22:00,53.0,50.0,29.85,NW,323,3.0,13.0,90,0.00,,,0.25,,2013-06-14 09:22:00,
2013-06-14 05:33:00,53.0,50.0,29.85,NW,322,4.0,10.0,91,0.00,,,0.25,,2013-06-14 09:33:00,
2013-06-14 05:43:00,53.0,50.0,29.85,NW,325,3.0,10.0,91,0.00,,,0.25,,2013-06-14 09:43:00,
2013-06-14 05:53:00,53.0,51.0,29.85,NW,318,3.0,8.0,92,0.00,,,0.24,,2013-06-14 09:53:00,
2013-06-14 06:01:00,53.0,51.0,29.86,NW,321,4.0,11.0,92,0.00,,,0.22,,2013-06-14 10:01:00,
2013-06-14 06:12:00,53.0,51.0,29.86,NW,326,5.0,11.0,92,0.00,,,0.21,,2013-06-14 10:12:00,
2013-06-14 06:22:00,53.0,50.0,29.86,NW,316,6.0,12.0,91,0.00,,,0.20,,2013-06-14 10:22:00,
2013-06-14 06:34:00,53.0,50.0,29.86,NW,316,6.0,12.0,91,0.00,,,0.20,,2013-06-14 10:34:00,
2013-06-14 06:43:00,53.0,50.0,29.87,NNW,333,3.0,11.0,91,0.00,,,0.14,,2013-06-14 10:43:00,
2013-06-14 06:52:00,53.0,51.0,29.88,NNW,327,3.0,8.0,92,0.00,,,0.14,,2013-06-14 10:52:00,
2013-06-14 07:02:00,53.0,51.0,29.88,NNW,327,3.0,8.0,92,0.00,,,0.14,,2013-06-14 11:02:00,
2013-06-14 07:11:00,53.0,50.0,29.89,NW,316,2.0,7.0,91,0.00,,,0.13,,2013-06-14 11:11:00,
2013-06-14 07:23:00,53.0,50.0,29.89,NNW,336,2.0,7.0,91,0.00,,,0.13,,2013-06-14 11:23:00,
2013-06-14 07:32:00,53.0,50.0,29.89,NNW,336,2.0,7.0,91,0.00,,,0.13,,2013-06-14 11:32:00,
2013-06-14 07:43:00,54.0,51.0,29.89,NW,322,3.0,7.0,91,0.00,,,0.12,,2013-06-14 11:43:00,
2013-06-14 07:52:00,54.0,51.0,29.89,NW,322,3.0,7.0,91,0.00,,,0.12,,2013-06-14 11:52:00,
2013-06-14 08:01:00,55.0,51.0,29.91,NW,318,8.0,12.0,87,0.00,,,0.06,,2013-06-14 12:01:00,
2013-06-14 08:02:00,54.0,51.0,29.90,NW,324,4.0,9.0,90,0.00,,,0.10,,2013-06-14 12:02:00,
2013-06-14 08:12:00,55.0,52.0,29.91,NNW,342,6.0,9.0,88,0.00,,,0.06,,2013-06-14 12:12:00,
2013-06-14 08:22:00,55.0,51.0,29.91,NW,318,8.0,12.0,87,0.00,,,0.06,,2013-06-14 12:22:00,
2013-06-14 08:33:00,55.0,51.0,29.91,NW,318,8.0,12.0,87,0.00,,,0.06,,2013-06-14 12:33:00,
2013-06-14 08:43:00,55.0,51.0,29.91,NW,318,8.0,12.0,87,0.00,,,0.06,,2013-06-14 12:43:00,
2013-06-14 08:52:00,55.0,51.0,29.91,NW,318,8.0,12.0,87,0.00,,,0.06,,2013-06-14 12:52:00,
2013-06-14 09:12:00,57.0,52.0,29.93,NW,314,4.0,11.0,82,0.00,,,0.04,,2013-06-14 13:12:00,
2013-06-14 09:22:00,57.0,52.0,29.93,NNW,333,3.0,11.0,83,0.00,,,0.04,,2013-06-14 13:22:00,
2013-06-14 09:33:00,57.0,52.0,29.93,NNW,333,3.0,11.0,83,0.00,,,0.04,,2013-06-14 13:33:00,
2013-06-14 09:43:00,57.0,51.0,29.94,NNW,337,6.0,12.0,80,0.00,,,0.04,,2013-06-14 13:43:00,
2013-06-14 09:53:00,58.0,52.0,29.95,WNW,299,3.0,11.0,80,0.00,,,0.04,,2013-06-14 13:53:00,
2013-06-14 10:02:00,58.0,52.0,29.95,WNW,302,4.0,9.0,80,0.00,,,0.04,,2013-06-14 14:02:00,
2013-06-14 10:12:00,58.0,52.0,29.95,WNW,301,4.0,11.0,79,0.00,,,0.04,,2013-06-14 14:12:00,
2013-06-14 10:22:00,59.0,52.0,29.96,NNW,333,5.0,11.0,77,0.00,,,0.04,,2013-06-14 14:22:00,
2013-06-14 10:34:00,60.0,52.0,29.96,NNW,339,5.0,11.0,75,0.00,,,0.04,,2013-06-14 14:34:00,
2013-06-14 10:43:00,60.0,52.0,29.96,WNW,289,6.0,9.0,74,0.00,,,0.04,,2013-06-14 14:43:00,
2013-06-14 10:52:00,60.0,52.0,29.96,WNW,289,6.0,9.0,74,0.00,,,0.04,,2013-06-14 14:52:00,
2013-06-14 11:02:00,60.0,51.0,29.97,NW,306,5.0,11.0,73,0.00,,,0.04,,2013-06-14 15:02:00,
2013-06-14 11:11:00,62.0,52.0,29.97,NNW,338,5.0,10.0,71,0.00,,,0.04,,2013-06-14 15:11:00,
2013-06-14 11:23:00,62.0,52.0,29.97,NNW,338,5.0,10.0,71,0.00,,,0.04,,2013-06-14 15:23:00,
2013-06-14 11:33:00,61.0,52.0,29.97,WNW,294,5.0,11.0,72,0.00,,,0.04,,2013-06-14 15:33:00,
2013-06-14 11:44:00,61.0,52.0,29.97,WNW,294,5.0,11.0,72,0.00,,,0.04,,2013-06-14 15:44:00,
2013-06-14 11:53:00,61.0,52.0,29.97,WNW,294,5.0,11.0,72,0.00,,,0.04,,2013-06-14 15:53:00,
2013-06-14 12:02:00,63.0,52.0,29.98,WNW,287,7.0,13.0,67,0.00,,,0.04,,2013-06-14 16:02:00,
2013-06-14 12:11:00,63.0,53.0,29.98,NNW,332,4.0,14.0,70,0.00,,,0.04,,2013-06-14 16:11:00,
2013-06-14 12:23:00,64.0,52.0,29.98,WNW,295,7.0,12.0,66,0.00,,,0.04,,2013-06-14 16:23:00,
2013-06-14 12:33:00,64.0,53.0,29.98,NW,308,8.0,15.0,67,0.00,,,0.04,,2013-06-14 16:33:00,
2013-06-14 12:43:00,64.0,53.0,29.99,NW,326,5.0,10.0,68,0.00,,,0.04,,2013-06-14 16:43:00,
2013-06-14 12:52:00,63.0,51.0,29.99,NNW,330,6.0,13.0,66,0.00,,,0.04,,2013-06-14 16:52:00,
2013-06-14 13:02:00,63.0,51.0,29.99,NNW,330,6.0,13.0,66,0.00,,,0.04,,2013-06-14 17:02:00,
2013-06-14 13:12:00,64.0,51.0,29.98,NW,326,5.0,17.0,63,0.00,,,0.04,,2013-06-14 17:12:00,
2013-06-14 13:22:00,64.0,51.0,29.98,NW,326,5.0,17.0,63,0.00,,,0.04,,2013-06-14 17:22:00,
2013-06-14 13:34:00,65.0,52.0,29.98,West,265,5.0,13.0,62,0.00,,,0.04,,2013-06-14 17:34:00,
2013-06-14 13:43:00,65.0,52.0,29.99,WNW,286,7.0,13.0,63,0.00,,,0.04,,2013-06-14 17:43:00,
2013-06-14 13:53:00,65.0,51.0,29.99,WNW,302,7.0,13.0,61,0.00,,,0.04,,2013-06-14 17:53:00,
2013-06-14 14:02:00,65.0,51.0,29.99,WNW,302,7.0,13.0,61,0.00,,,0.04,,2013-06-14 18:02:00,
2013-06-14 14:11:00,66.0,51.0,29.99,WNW,296,7.0,14.0,59,0.00,,,0.04,,2013-06-14 18:11:00,
2013-06-14 14:22:00,66.0,51.0,29.99,WNW,296,7.0,14.0,59,0.00,,,0.04,,2013-06-14 18:22:00,
2013-06-14 14:32:00,66.0,53.0,30.00,NW,313,7.0,14.0,62,0.00,,,0.04,,2013-06-14 18:32:00,
2013-06-14 14:43:00,66.0,51.0,29.99,NW,321,8.0,17.0,58,0.00,,,0.02,,2013-06-14 18:43:00,
2013-06-14 14:52:00,66.0,52.0,29.99,WSW,258,5.0,17.0,61,0.00,,,0.02,,2013-06-14 18:52:00,
2013-06-14 15:01:00,66.0,51.0,30.00,NW,309,10.0,15.0,59,0.00,,,0.01,,2013-06-14 19:01:00,
2013-06-14 15:11:00,67.0,51.0,29.99,WNW,295,5.0,14.0,56,0.00,,,0.01,,2013-06-14 19:11:00,
2013-06-14 15:22:00,67.0,51.0,29.99,WNW,302,4.0,16.0,56,0.00,,,0.01,,2013-06-14 19:22:00,
2013-06-14 15:32:00,67.0,51.0,29.99,WNW,302,4.0,16.0,56,0.00,,,0.01,,2013-06-14 19:32:00,
2013-06-14 15:43:00,67.0,49.0,29.99,NW,320,6.0,12.0,53,0.00,,,0.01,,2013-06-14 19:43:00,
2013-06-14 15:53:00,67.0,49.0,29.99,NW,320,6.0,12.0,53,0.00,,,0.01,,2013-06-14 19:53:00,
2013-06-14 16:02:00,68.0,52.0,29.99,West,267,6.0,14.0,56,0.00,,,0.00,,2013-06-14 20:02:00,
2013-06-14 16:11:00,68.0,51.0,29.99,NW,322,9.0,13.0,55,0.00,,,0.00,,2013-06-14 20:11:00,
2013-06-14 16:22:00,67.0,52.0,29.99,NW,305,6.0,16.0,58,0.00,,,0.00,,2013-06-14 20:22:00,
2013-06-14 16:33:00,67.0,51.0,29.99,NW,321,5.0,12.0,56,0.00,,,0.00,,2013-06-14 20:33:00,
2013-06-14 16:43:00,67.0,52.0,29.99,West,265,7.0,16.0,58,0.00,,,0.00,,2013-06-14 20:43:00,
2013-06-14 16:53:00,67.0,52.0,29.99,West,265,7.0,16.0,58,0.00,,,0.00,,2013-06-14 20:53:00,
2013-06-14 17:02:00,67.0,52.0,29.99,West,265,7.0,16.0,58,0.00,,,0.00,,2013-06-14 21:02:00,
2013-06-14 17:12:00,67.0,52.0,29.99,WNW,296,5.0,15.0,59,0.00,,,0.00,,2013-06-14 21:12:00,
2013-06-14 17:22:00,67.0,53.0,29.99,NW,305,5.0,16.0,60,0.00,,,0.00,,2013-06-14 21:22:00,
2013-06-14 17:34:00,66.0,51.0,29.99,NW,318,5.0,16.0,59,0.00,,,0.00,,2013-06-14 21:34:00,
2013-06-14 17:42:00,67.0,51.0,29.99,WNW,291,6.0,12.0,56,0.00,,,0.00,,2013-06-14 21:42:00,
2013-06-14 17:52:00,67.0,53.0,29.99,West,268,6.0,13.0,60,0.00,,,0.00,,2013-06-14 21:52:00,
2013-06-14 18:02:00,67.0,52.0,29.99,WSW,256,8.0,16.0,58,0.00,,,0.00,,2013-06-14 22:02:00,
2013-06-14 18:12:00,67.0,52.0,29.99,West,266,6.0,16.0,59,0.00,,,0.00,,2013-06-14 22:12:00,
2013-06-14 18:22:00,67.0,52.0,29.99,West,266,6.0,16.0,59,0.00,,,0.00,,2013-06-14 22:22:00,
2013-06-14 18:33:00,66.0,52.0,30.01,WSW,251,8.0,14.0,61,0.00,,,0.00,,2013-06-14 22:33:00,
2013-06-14 18:43:00,66.0,52.0,30.01,WSW,251,8.0,14.0,61,0.00,,,0.00,,2013-06-14 22:43:00,
2013-06-14 18:53:00,66.0,53.0,30.00,WNW,303,6.0,16.0,63,0.00,,,0.00,,2013-06-14 22:53:00,
2013-06-14 19:02:00,66.0,54.0,30.00,West,279,6.0,14.0,65,0.00,,,0.00,,2013-06-14 23:02:00,
2013-06-14 19:12:00,66.0,54.0,30.00,West,260,6.0,14.0,66,0.00,,,0.00,,2013-06-14 23:12:00,
2013-06-14 19:22:00,66.0,54.0,30.00,West,268,6.0,11.0,66,0.00,,,0.00,,2013-06-14 23:22:00,
2013-06-14 19:33:00,65.0,54.0,30.00,WNW,286,5.0,14.0,67,0.00,,,0.00,,2013-06-14 23:33:00,
2013-06-14 19:43:00,65.0,54.0,30.00,West,276,5.0,12.0,68,0.00,,,0.00,,2013-06-14 23:43:00,
2013-06-14 19:52:00,65.0,54.0,30.00,West,276,5.0,12.0,68,0.00,,,0.00,,2013-06-14 23:52:00,
2013-06-14 20:01:00,65.0,55.0,30.01,WNW,290,4.0,11.0,69,0.00,,,0.00,,2013-06-15 00:01:00,
2013-06-14 20:11:00,65.0,55.0,30.01,WNW,290,4.0,11.0,69,0.00,,,0.00,,2013-06-15 00:11:00,
2013-06-14 20:23:00,64.0,55.0,30.02,WSW,250,5.0,9.0,72,0.00,,,0.00,,2013-06-15 00:23:00,
2013-06-14 20:34:00,64.0,55.0,30.02,WSW,250,5.0,9.0,72,0.00,,,0.00,,2013-06-15 00:34:00,
2013-06-14 20:43:00,63.0,55.0,30.02,West,264,2.0,7.0,75,0.00,,,0.00,,2013-06-15 00:43:00,
2013-06-14 20:53:00,62.0,54.0,30.03,North,0,0.0,7.0,75,0.00,,,0.00,,2013-06-15 00:53:00,
2013-06-14 21:01:00,62.0,54.0,30.03,WSW,249,1.0,7.0,75,0.00,,,0.00,,2013-06-15 01:01:00,
2013-06-14 21:11:00,62.0,54.0,30.03,WSW,249,1.0,7.0,75,0.00,,,0.00,,2013-06-15 01:11:00,
2013-06-14 21:22:00,62.0,55.0,30.03,WSW,241,3.0,8.0,77,0.00,,,0.00,,2013-06-15 01:22:00,
2013-06-14 21:33:00,62.0,55.0,30.03,WSW,241,3.0,8.0,77,0.00,,,0.00,,2013-06-15 01:33:00,
2013-06-14 21:43:00,62.0,55.0,30.03,WSW,241,3.0,8.0,77,0.00,,,0.00,,2013-06-15 01:43:00,
2013-06-14 21:54:00,62.0,55.0,30.03,WSW,241,3.0,8.0,77,0.00,,,0.00,,2013-06-15 01:54:00,
2013-06-14 22:02:00,61.0,54.0,30.04,WSW,255,2.0,5.0,79,0.00,,,0.00,,2013-06-15 02:02:00,
2013-06-14 22:12:00,60.0,53.0,30.05,WSW,248,4.0,7.0,79,0.00,,,0.00,,2013-06-15 02:12:00,
2013-06-14 22:23:00,60.0,53.0,30.05,WSW,248,4.0,7.0,79,0.00,,,0.00,,2013-06-15 02:23:00,
2013-06-14 22:34:00,60.0,53.0,30.06,WSW,242,4.0,9.0,79,0.00,,,0.00,,2013-06-15 02:34:00,
2013-06-14 22:43:00,60.0,54.0,30.06,SW,235,2.0,5.0,81,0.00,,,0.00,,2013-06-15 02:43:00,
2013-06-14 22:53:00,60.0,54.0,30.06,SW,235,2.0,5.0,81,0.00,,,0.00,,2013-06-15 02:53:00,
2013-06-14 23:01:00,59.0,54.0,30.06,North,0,0.0,2.0,82,0.00,,,0.00,,2013-06-15 03:01:00,
2013-06-14 23:11:00,59.0,54.0,30.06,North,0,0.0,2.0,82,0.00,,,0.00,,2013-06-15 03:11:00,
2013-06-14 23:24:00,59.0,54.0,30.06,WSW,242,1.0,5.0,82,0.00,,,0.00,,2013-06-15 03:24:00,
2013-06-14 23:32:00,59.0,53.0,30.07,WSW,245,3.0,7.0,81,0.00,,,0.00,,2013-06-15 03:32:00,
2013-06-14 23:44:00,59.0,53.0,30.06,WSW,248,2.0,7.0,81,0.00,,,0.00,,2013-06-15 03:44:00,
2013-06-14 23:52:00,59.0,53.0,30.06,WSW,248,2.0,7.0,81,0.00,,,0.00,,2013-06-15 03:52:00,